Location: ????????
(48.4751°N, 37.6926°E)
Time: 03:15:14
(UTC+00:00)

Cosmos 773 Rocket - Pass Details

Date: 20 January 2021
Orbit: 746 x 776 km, 74.1° (Epoch: 24 February)

Event Time Altitude Azimuth Distance (km) Brightness Sun altitude
Rises 14:53:48 0° 338° (NNW) 3,217 7.2 -7.5°
Reaches altitude 10° 14:56:12 10° 340° (NNW) 2,284 6.5 -7.8°
Maximum altitude 15:01:22 72° 66° (ENE) 789 3.9 -8.6°
Drops below altitude 10° 15:06:28 10° 151° (SSE) 2,259 6.3 -9.4°
Sets 15:08:49 0° 153° (SSE) 3,178 7.1 -9.8°
